Find Starlink 35132

NORAD ID: 66461 Int'l Des: 2025-262 Owner: SPXS Country: US Constellation: starlink operational
LEOCIRCULAR

当前视图

正在加载3D地球...

About Starlink 35132

Starlink 35132 (NORAD 66461) is a starlink constellation satellite (v2 mini) launched Nov 15, 2025 by SPXS of US. It operates in LEO, CIRCULAR orbit with a mass of 575.00 kg.

关于 Starlink 35132

正在加载描述...

即将过境

Passes for default location (London). Set your location on the main map for personalized predictions.

高度历史

Loading altitude history...

两行轨道根数

1 66461U 25262F 26174.97689123 .00018933 00000-0 69597-3 0 9998
2 66461 43.0038 55.7481 0002039 278.4366 81.6254 15.27570419 35165
Epoch: Jun 23, 2026 • Age: 12 hours

当前状态

高度 494.4 km
速度 7.62 km/s
星下点 -41.49°S, 142.34°W
发射日期 Nov 15, 2025
运行时间 0.6 years
类型 internet

技术详情

分类 Payload
质量 575.00 kg
干质量 530.00 kg
总质量 575.00 kg
长度 0.30 m
直径 4.10 m
跨度 29.00 m
形状 Box + pan
制造商 SPXS
平台类型 Starlink V2MO
阶段状态 In Orbit
所有者/国家 SPXS/US

Most Searched